User: anonymous   Login
Location: Vancouver
(49.2500°N, 123.1330°W)
Time: 08:42:08
(UTC-07:00)
Language:

SO-67 - Orbit

View from above orbital plane
View from above orbital plane
View from above satellite
View from above satellite

Ground track
Ground track

The orbit data is extracted from the following two-line orbital elements,

1 35870U 09049F   17176.24565745 +.00004412 +00000-0 +70822-4 0  9999
2 35870 097.1024 192.8854 0003858 063.1858 065.7066 15.53567600434470
Epoch (UTC): 25 June 2017 05:53:44
Eccentricity: 0.0003858
inclination: 97.1024°
perigee height: 404 km
apogee height: 409 km
right ascension of ascending node: 192.8854°
argument of perigee: 63.1858°
revolutions per day: 15.53567600
mean anomaly at epoch: 65.7066°
orbit number at epoch: 43447

The dashed part of the orbit path shows where the satellite is in the earth's shadow,  

DLR